Hourly Data Report for April 30, 2016

MIRAMICHI RCS
NEW BRUNSWICK

47°00'34.000" N
65°27'54.000" W
33.00 m
8100989
71744
ACQ

Download Data

Hourly Data (April 2016)
Hourly Data Report for April 30, 2016
TIME
LST
Temp Definition
°C
Dew Point Definition
°C
Rel Hum Definition
%
Precip. Amount Definition
mm

Wind Dir Definition
10's deg

Wind Spd Definition
km/h
Visibility Definition
km
Stn Press Definition
kPa
Hmdx Definition


Wind Chill Definition


Weather Definition


00:00 1.5 -11.9 36 0.0 30 6   101.66     LegendNANA
01:00 -0.2 -10.9 44 0.0 28 8   101.63   -3 LegendNANA
02:00 -0.7 -10.3 48 0.0 27 9   101.64   -4 LegendNANA
03:00 -1.0 -10.0 51 0.0 26 10   101.68   -5 LegendNANA
04:00 -1.4 -8.9 56 0.0 26 9   101.73   -5 LegendNANA
05:00 -1.8 -9.4 56 0.0 27 5   101.76   -4 LegendNANA
06:00 -2.1 -8.2 63 0.0 26 2   101.80   -3 LegendNANA
07:00 1.7 -9.3 44 0.0 23 8   101.85     LegendNANA
08:00 4.7 -8.5 38 0.0 24 5   101.87     LegendNANA
09:00 7.4 -8.5 31 0.0 35 4   101.86     LegendNANA
10:00 9.3 -7.9 29 0.0 23 6   101.85     LegendNANA
11:00 11.1 -7.2 27 0.0 36 8   101.85     LegendNANA
12:00 12.7 -6.9 25 0.0 19 5   101.81     LegendNANA
13:00 13.7 -6.6 24 0.0 10 7   101.79     LegendNANA
14:00 14.5 -6.5 23 0.0 31 6   101.75     LegendNANA
15:00 15.2 -6.4 22 0.0 8 7   101.72     LegendNANA
16:00 14.2 -1.1 35 0.0 5 20   101.70     LegendNANA
17:00 12.2 -3.5 33 0.0 5 23   101.75     LegendNANA
18:00 11.9 -4.0 33 0.0 8 20   101.83     LegendNANA
19:00 9.8 -4.8 35 0.0 10 15   101.89     LegendNANA
20:00 6.3 -4.7 45 0.0 10 12   101.93     LegendNANA
21:00 5.9 -4.7 47 0.0 5 7   101.96     LegendNANA
22:00 3.8 -0.2 75 0.0 3 9   102.04     LegendNANA
23:00 2.8 -0.4 80 0.0 5 6   102.07     LegendNANA

Notes on Data Quality.

Legend

  • E = Estimated
  • M = Missing
  • NA = Not Available*
  • [empty] = Indicates an unobserved value
Date modified: